COSMOS 2251 DEB, 40797

Orbit data source: Space-Track

COSMOS 2251 DEB, 40797 is space debris in LEO originally from a launch on Wed, 16 Jun 1993 UTC launched from the Plesetsk Missile And Space Complex (PKMTR). The debris from Iridium 33, an American commercial communications satellite, has been tracked extensively since its accidental collision with the defunct Russian satellite Cosmos 2251 in 2009. This event, occurring at high speed in low Earth orbit (LEO), generated thousands of pieces of space debris, significantly increasing the risk of further collisions. The Iridium 33 debris cloud has impacted space traffic management and orbital debris mitigation strategies, making it a subject of ongoing study in space situational awareness.

Loading next visibility...
Identifier
40797, 1993-036BWA
Orbit
LEO
Country
Flag of CISCIS
Related business
Manufacturer
Unknown
Mission
Spacecraft
Bus & Motor
Unknown
Mass
Unknown
Launch date (UTC)
1993-06-16 (33 years ago)
Launch vehicle
Unknown
Launch site
Plesetsk Missile And Space Complex (PKMTR)
Object type
Payload
Rocket body
Debris
Shape & HBR
Unknown shape, 0.1 m
Radar Cross Section
Small (<0.1 m²)

Expand to show TLE details & history
Last TLE update: 2 months ago

TLE from 2 months ago
0 COSMOS 2251 DEB
1 40797U 93036BWA 26016.29906797  .00012186  00000-0  65987-3 0  9998
2 40797  73.9248  23.2553 0072730 286.8154  72.5070 15.12375888651668
Epoch: 2026-01-16T07:10Z
TLE epoch observation values (Epoch: 2026-01-16T07:10:39.472Z)
Latitude
0.00002°
Longitude
159.8505°
Altitude
516.884 km
Speed
7.613 km/s
True Right ascension
01h 33m 01s
True Declination
0° 00' 00"
Sunlit
Object was in daylight at epoch
Visualization orbit readout
Latitude
Unknown
Longitude
Unknown
Altitude
Unknown
Speed
Unknown
Apparent Right ascension
Unknown
Apparent Declination
Unknown
Sunlit
N/A
Visualization observer readout
Local Sidereal Time
14:33:50
Azimuth
Unknown
Elevation
Unknown
Doppler factor
Unknown
Orbital elements
Apogee altitude
576.724 km
Perigee altitude
476.289 km
Semi-major axis
6,904.644 km
Eccentricity
0.00727
Inclination
73.9248°
RAAN
23.2553°
Arg. of periapsis
286.8154°
True anomaly
73.30403°
Mean anomaly
72.507°
Eccentric anomaly
72.9053°
Mean motion
3.78296 °/min
Orbital period
95.16 mins
BSTAR
0.00065987
Loading maneuver chart data...
Computing Atmospheric mass density...

Documentation

Showing up to 5 results
|